Weather History for K40B - February, 2013

Change the Weather History Date:

Monday, February 4, 2013

  Actual Average Record
Temperature  
Mean Temperature 8 °F -  
Max Temperature 18 °F 22 °F 42 °F (1999)
Min Temperature -1 °F -6 °F -81 °F (2000)
Degree Days  
Heating Degree Days 56    
Moisture  
Dew Point 1 °F    
Average Humidity 75    
Maximum Humidity 87    
Minimum Humidity 51    
Precipitation  
Precipitation 0.04 in - - ()
Sea Level Pressure  
Sea Level Pressure 29.64 in    
Wind  
Wind Speed 3 mph (SW)    
Max Wind Speed 9 mph    
Max Gust Speed 24 mph    
Averages and records for this station are not official NWS values.
T = Trace of Precipitation, MM = Missing Value Source: NWS Daily Summary

Daily Weather History Graph

Daily Weather History Graph

Search for Another Location

Airport or City:

Trip Planner

Search our weather history database for the weather conditions in past years. The results will help you decide how hot, cold, wet, or windy it might be!

Date:

Astronomy

Feb. 04, 2013 Rise Set
Actual Time 6:57 AM EST 4:46 PM EST
Civil Twilight 6:25 AM EST 5:18 PM EST
Nautical Twilight 5:49 AM EST 5:54 PM EST
Astronomical Twilight 5:14 AM EST 6:30 PM EST
Moon 1:34 AM EST 11:02 AM EST
Length of Visible Light 10h 53m
Length of Day
9h 49m
Last Quarter, 37% of the Moon is Illuminated
Feb 4
Last Quarter
Feb 10
New
Feb 17
First Quarter
Feb 25
Full
Mar 4
Last Quarter

Hourly Weather History & Observations

Time (EST) Temp. Windchill Dew Point Humidity Pressure Visibility Wind Dir Wind Speed Gust Speed Precip Events Conditions
12:25 AM -1.1 °F - -4.2 °F 87% 29.77 in - Calm Calm - N/A   Unknown
1:25 AM -0.8 °F - -4.0 °F 86% 29.75 in - Calm Calm - N/A   Unknown
2:25 AM 2.3 °F -5.2 °F -0.8 °F 87% 29.74 in - Variable 3.5 mph - 0.01 in   Unknown
3:25 AM 1.2 °F - -1.8 °F 87% 29.73 in - Variable 2.3 mph - N/A   Unknown
4:25 AM 0.7 °F - -2.4 °F 87% 29.70 in - Calm Calm - N/A   Unknown
6:25 AM 1.9 °F - -1.1 °F 87% 29.68 in - Variable 2.3 mph - N/A   Unknown
7:25 AM 1.4 °F - -1.7 °F 87% 29.68 in - Calm Calm - N/A   Unknown
8:29 AM 7.9 °F 1.2 °F 4.8 °F 87% 29.66 in - Variable 3.5 mph - 0.01 in   Unknown
9:25 AM 10.9 °F 4.7 °F 7.3 °F 85% 29.65 in - Variable 3.5 mph 12.7 mph 0.01 in   Unknown
10:25 AM 15.1 °F 9.4 °F 8.1 °F 74% 29.62 in - Variable 3.5 mph 13.8 mph N/A   Unknown
11:25 AM 15.3 °F 7.9 °F 5.9 °F 67% 29.59 in - Variable 4.6 mph 16.1 mph N/A   Unknown
12:30 PM 16.2 °F 7.6 °F 6.1 °F 65% 29.56 in - Variable 5.8 mph 16.1 mph N/A   Unknown
1:25 PM 18.0 °F 11.1 °F 4.8 °F 57% 29.55 in - Variable 4.6 mph 17.3 mph N/A   Unknown
2:26 PM 16.7 °F 5.3 °F 1.9 °F 52% 29.55 in - WSW 9.2 mph 20.7 mph N/A   Unknown
3:25 PM 16.0 °F 7.4 °F 0.5 °F 51% 29.55 in - Variable 5.8 mph 21.9 mph N/A   Unknown
4:25 PM 14.7 °F 4.8 °F 0.7 °F 54% 29.55 in - SW 6.9 mph 20.7 mph N/A   Unknown
5:26 PM 12.2 °F 2.9 °F 1.9 °F 64% 29.57 in - Variable 5.8 mph 16.1 mph 0.00 in   Unknown
6:25 PM 10.9 °F 0.2 °F 4.5 °F 75% 29.58 in - Variable 6.9 mph 18.4 mph 0.00 in   Unknown
7:25 PM 11.1 °F 1.7 °F 7.3 °F 85% 29.58 in - Variable 5.8 mph - 0.00 in   Unknown
8:25 PM 10.0 °F -2.9 °F 4.5 °F 78% 29.61 in - SW 9.2 mph 20.7 mph 0.00 in   Unknown
9:27 PM 6.4 °F -5.2 °F -0.2 °F 74% 29.63 in - Variable 6.9 mph 21.9 mph 0.00 in   Unknown
10:31 PM 3.2 °F -11.3 °F -4.7 °F 70% 29.67 in - WSW 9.2 mph 24.2 mph N/A   Unknown
11:25 PM 0.7 °F -13.3 °F -7.8 °F 68% 29.70 in - SW 8.1 mph 16.1 mph 0.01 in   Unknown